Date,TemperatureHighF,TemperatureAvgF,TemperatureLowF,DewpointHighF,DewpointAvgF,DewpointLowF,HumidityHigh,HumidityAvg,HumidityLow,PressureMaxIn,PressureMinIn,WindSpeedMaxMPH,WindSpeedAvgMPH,GustSpeedMaxMPH,PrecipitationSumIn
2013-7-1,70.5,64.7,60.4,66.0,60.4,52.3,100,87,70,29.75,29.62,1,0,5,0.01
2013-7-2,78.1,68.0,61.7,71.4,65.4,61.3,100,92,76,29.78,29.70,0,0,2,0.00
2013-7-3,90.0,72.0,60.1,79.1,69.2,59.8,100,92,62,29.79,29.72,0,0,2,0.00
2013-7-4,89.6,76.6,69.3,78.1,72.7,69.0,100,89,58,29.82,29.75,1,0,4,0.00
2013-7-5,94.1,75.9,52.9,79.5,72.6,47.9,100,91,51,29.80,29.54,0,0,4,0.00
2013-7-6,89.8,76.0,52.5,80.0,73.6,48.4,100,93,71,29.94,29.57,0,0,2,8.08
2013-7-7,89.1,76.4,70.9,80.4,74.6,70.6,100,95,71,29.85,29.76,1,0,4,0.04
2013-7-8,87.1,74.7,69.3,83.9,73.9,69.0,100,98,85,29.85,29.77,1,0,7,1.12
2013-7-9,97.7,78.4,70.7,83.5,75.7,70.4,100,93,60,29.81,29.67,1,0,7,0.01
2013-7-10,90.5,78.7,67.8,83.9,75.3,64.3,99,90,68,29.77,29.57,2,0,9,1.00
2013-7-11,86.0,69.4,61.0,68.6,63.7,60.7,100,84,51,29.90,29.76,1,0,5,0.00
2013-7-12,91.2,70.0,56.8,71.7,64.7,56.6,100,85,52,29.99,29.90,0,0,3,0.00
2013-7-13,95.4,74.1,60.8,74.6,67.4,60.5,100,83,51,30.06,29.97,0,0,2,0.00
2013-7-14,98.8,78.3,65.5,83.0,74.1,65.2,100,89,57,30.09,30.02,0,0,3,0.00
2013-7-15,98.6,79.1,70.2,88.9,77.2,69.9,100,95,66,30.14,30.04,0,0,1,3.13
2013-7-16,101.5,81.9,73.4,90.3,80.6,73.1,100,96,66,30.14,30.03,0,0,0,0.00
2013-7-17,102.6,84.9,73.6,88.1,81.4,73.1,100,91,60,30.10,29.94,1,0,4,0.00
2013-7-18,100.8,84.1,74.3,90.5,81.3,74.0,100,92,70,29.97,29.76,0,0,2,0.00
2013-7-19,99.5,83.7,74.8,84.6,79.8,73.5,100,90,57,29.78,29.52,2,0,9,0.08
2013-7-20,94.5,77.7,69.1,76.0,70.9,67.1,100,83,47,29.78,29.55,0,0,4,2.03
2013-7-21,92.3,73.0,63.3,73.4,67.0,60.1,100,83,53,29.84,29.75,0,0,2,0.00
2013-7-22,90.5,74.4,64.9,78.1,71.1,64.7,100,91,58,29.80,29.59,0,0,2,0.00
2013-7-23,79.9,67.8,52.5,77.6,67.0,47.9,99,97,75,30.09,29.51,0,0,1,15.84
2013-7-24,79.2,64.3,55.6,62.3,57.2,53.6,100,80,54,30.27,30.09,1,0,6,0.00
2013-7-25,88.7,65.5,50.9,66.6,58.5,50.6,100,82,44,30.33,30.26,0,0,3,0.00
2013-7-26,87.6,69.8,56.3,69.4,64.0,56.0,100,84,51,30.32,30.13,0,0,3,0.00
2013-7-27,78.1,67.4,58.5,76.7,67.0,58.0,100,99,88,30.14,29.95,1,0,8,0.07
2013-7-28,74.1,59.6,51.6,67.9,58.1,51.3,100,95,71,30.19,30.03,1,0,4,0.09
2013-7-29,77.2,63.0,56.5,64.9,60.4,56.2,100,92,65,30.39,30.17,0,0,3,0.00
2013-7-30,89.1,67.3,53.1,71.1,62.1,52.8,100,86,53,30.45,30.35,0,0,1,0.01
2013-7-31,73.9,67.3,61.2,73.6,67.0,60.9,99,99,99,30.36,30.07,0,0,0,0.39